Regional Weather Roundup
Issued by NWS

Home | Current Version | Previous Version | Text Only | Print | Product List | Glossary Off
Versions: 1 2 3 4 5 6 7 8 9 10 11 12 13 14 15 16 17 18 19 20 21 22 23 24 25 26 27 28 29

000
ASUS45 KSLC 291710
RWRUT

UTAH REGIONAL WEATHER ROUNDUP
NATIONAL WEATHER SERVICE SALT LAKE CITY UT
1100 AM MDT WED OCT 29 2014

UTZ001>011-023>025-291800-

NORTHERN UTAH

CITY           SKY/WX    TMP DP  RH WIND       PRES   REMARKS
BRIGHAM CITY   CLOUDY    47  23  39 CALM      30.32S
HILL AFB       MOSUNNY   48  17  28 E12       30.30F
LOGAN          SUNNY     42  26  53 CALM      30.31R
OGDEN          MOSUNNY   51  18  27 S6        30.30S
PROVO AIRPORT  MOSUNNY   46  23  39 VRB3      30.34R
SALT LAKE CITY MOSUNNY   50  24  36 S5        30.30S
VERNAL         SUNNY     42  19  39 VRB3      30.35F
WENDOVER       SUNNY     45  25  45 E6        30.32R
HEBER CITY     SUNNY     41  18  38 CALM      30.35F
WEST JORDAN    SUNNY     54  27  35 S12       30.31F

$$

UTZ012>022-026-027-291800-

SOUTHERN/CENTRAL UTAH

CITY           SKY/WX    TMP DP  RH WIND       PRES   REMARKS
BLANDING       SUNNY     52  14  22 CALM      30.43R
BRYCE CANYON   SUNNY     51  17  26 NE3       30.41S
CEDAR CITY     SUNNY     51  21  30 W3        30.32S
DELTA          SUNNY     47  16  28 CALM      30.33S
HANKSVILLE       N/A     46  14  27 CALM      30.36F
MILFORD        NOT AVBL
MOAB/CYNLANDS  SUNNY     53  14  21 CALM      30.33S
PRICE          SUNNY     50  11  20 S5        30.35S
ST GEORGE      SUNNY     54  18  24 CALM      30.28S
KANAB            N/A     61  21  21 NW7       30.33F

$$

REGIONAL REPORTS     COLORADO/ARIZONA

CITY           SKY/WX    TMP DP  RH WIND       PRES   REMARKS
CRAIG, CO        N/A     44  25  47 CALM      30.35F
GRAND JUNCTION SUNNY     50  16  25 SE5       30.35S
RIFLE          SUNNY     42  11  28 CALM      30.37F
MONTROSE       SUNNY     48  16  27 CALM      30.37F
CORTEZ         SUNNY     53  15  22 CALM      30.35F
PAGE, AZ       SUNNY     56  20  24 NW3       30.31R
GRAND CANYON   SUNNY     64  24  21 S9        30.35F
KINGMAN        SUNNY     67  25  20 N3        30.20F
FLAGSTAFF      SUNNY     60  27  28 VRB6      30.38S

$$

REGIONAL REPORTS    NEVADA/IDAHO/WYOMING

CITY           SKY/WX    TMP DP  RH WIND       PRES   REMARKS
LAS VEGAS, NV  SUNNY     69  19  15 S5        30.16R
ELY            SUNNY     53  17  24 S9        30.35F
ELKO           SUNNY     42  16  34 CALM      30.32F
POCATELLO, ID  PTSUNNY   58  26  29 S10       30.25R
BURLEY         MOSUNNY   57  29  34 SW12      30.23R
EVANSTON, WY   MOSUNNY   49  14  24 SW20      30.34R
ROCK SPRINGS   SUNNY    N/A N/A N/A MISG      30.30
KEMMERER       SUNNY     45  14  29 SW18      30.32S

$$



USA.gov is the U.S. government's official web portal to all federal, state and local government web resources and services.